Location: Te Maire Creek
(41.1333°S, 175.9167°E)
Time: 23:16:34
(UTC+00:00)

BREEZE M DEB (TANK) - Pass Details

Date: 19 May 2024
Orbit: 304 x 11479 km, 49.5° (Epoch: 22 June)

Event Time Altitude Azimuth Distance (km) Brightness Sun altitude
Exits shadow 17:13:51 52° 229° (SW) 1,055 3.3 -23.9°
Maximum altitude 17:15:10 83° 148° (SSE) 1,025 3.5 -23.7°
Drops below altitude 10° 17:28:09 10° 58° (ENE) 5,944 8.5 -21.2°
Sets 17:36:20 0° 57° (ENE) 8,789 9.6 -19.7°
